Weather History for Gainesville, FL

Change the Weather History Date:

Tuesday, July 9, 2013

  Actual Average Record
Temperature  
Mean Temperature 83 °F 81 °F  
Max Temperature 93 °F 91 °F 99 °F (1932)
Min Temperature 73 °F 71 °F 61 °F (2006)
Degree Days  
Heating Degree Days 0 0  
Month to date heating degree days 0 0  
Since 1 June heating degree days 0 0  
Since 1 July heating degree days 0 0  
Cooling Degree Days 18 16  
Month to date cooling degree days 147 144  
Year to date cooling degree days 1167 1093  
Since 1 June cooling degree days 635 583  
Growing Degree Days 33 (Base 50)    
Moisture  
Dew Point 70 °F    
Average Humidity 67    
Maximum Humidity 94    
Minimum Humidity 39    
Precipitation  
Precipitation 0.00 in 0.22 in 2.35 in (1896)
Month to date precipitation 3.09 1.93  
Year to date precipitation 20.34 25.04  
Snow  
Snow 0.00 in 0.00 in 0.00 in ()
Month to date snowfall 0.0 0.0  
Since 1 June snowfall 0.0 0.0  
Since 1 July snowfall 0.0 0.0  
Snow Depth 0.00 in    
Sea Level Pressure  
Sea Level Pressure 30.14 in    
Wind  
Wind Speed 4 mph (ESE)    
Max Wind Speed 15 mph    
Max Gust Speed 22 mph    
Visibility 10 miles    
Events      
T = Trace of Precipitation, MM = Missing Value Source: NWS Daily Summary

Daily Weather History Graph

Daily Weather History Graph

Search for Another Location

Airport:

Trip Planner

Search our weather history database for the weather conditions in past years. The results will help you decide how hot, cold, wet, or windy it might be!

Date:

Astronomy

Jul. 09, 2013 Rise Set
Actual Time 6:35 AM EDT 8:32 PM EDT
Civil Twilight 6:08 AM EDT 8:59 PM EDT
Nautical Twilight 5:36 AM EDT 9:32 PM EDT
Astronomical Twilight 5:01 AM EDT 10:06 PM EDT
Moon 7:49 AM EDT (7/9) 9:21 PM EDT (7/9)
Length of Visible Light 14h 50m
Length of Day
13h 56m
New Moon, 2% of the Moon is Illuminated
Jul 9
New Moon
Jul 15
First Quarter
Jul 22
Full
Jul 29
Last Quarter
Aug 6
New

Hourly Weather History & Observations

Time (EDT) Temp. Heat Index Dew Point Humidity Pressure Visibility Wind Dir Wind Speed Gust Speed Precip Events Conditions
12:53 AM 75.9 °F - 72.0 °F 87% 30.18 in 10.0 mi East 3.5 mph - N/A   Clear
1:53 AM 75.9 °F - 72.0 °F 87% 30.15 in 10.0 mi Calm Calm - N/A   Clear
2:53 AM 75.0 °F - 72.0 °F 90% 30.14 in 10.0 mi Calm Calm - N/A   Clear
3:53 AM 73.9 °F - 72.0 °F 93% 30.14 in 10.0 mi Calm Calm - N/A   Clear
4:53 AM 73.9 °F - 72.0 °F 93% 30.15 in 9.0 mi Calm Calm - N/A   Scattered Clouds
5:53 AM 73.9 °F - 71.1 °F 91% 30.15 in 10.0 mi Calm Calm - N/A   Mostly Cloudy
6:53 AM 73.0 °F - 71.1 °F 93% 30.15 in 9.0 mi Calm Calm - N/A   Partly Cloudy
7:53 AM 75.9 °F - 73.9 °F 94% 30.16 in 9.0 mi Calm Calm - N/A   Clear
8:53 AM 80.1 °F 84.5 °F 73.9 °F 81% 30.18 in 10.0 mi ESE 3.5 mph - N/A   Clear
9:53 AM 82.0 °F 87.4 °F 73.0 °F 74% 30.19 in 10.0 mi SE 4.6 mph - N/A   Mostly Cloudy
10:53 AM 84.9 °F 90.7 °F 72.0 °F 65% 30.19 in 10.0 mi ESE 4.6 mph - N/A   Partly Cloudy
11:53 AM 88.0 °F 93.8 °F 71.1 °F 57% 30.18 in 10.0 mi Variable 4.6 mph - N/A   Mostly Cloudy
12:53 PM 89.1 °F 93.7 °F 69.1 °F 52% 30.17 in 10.0 mi East 6.9 mph - N/A   Scattered Clouds
1:53 PM 91.0 °F 95.2 °F 68.0 °F 47% 30.16 in 10.0 mi East 6.9 mph - N/A   Partly Cloudy
2:53 PM 91.0 °F 93.8 °F 66.0 °F 44% 30.13 in 10.0 mi East 9.2 mph - N/A   Partly Cloudy
3:53 PM 93.0 °F 95.0 °F 64.9 °F 39% 30.10 in 10.0 mi ESE 9.2 mph - N/A   Clear
4:53 PM 93.0 °F 97.4 °F 68.0 °F 44% 30.08 in 10.0 mi ESE 6.9 mph - N/A   Clear
5:53 PM 91.0 °F 94.3 °F 66.9 °F 45% 30.08 in 10.0 mi ESE 8.1 mph - N/A   Clear
6:53 PM 90.0 °F 92.8 °F 66.9 °F 46% 30.07 in 10.0 mi East 8.1 mph - N/A   Clear
7:53 PM 84.0 °F 87.0 °F 68.0 °F 58% 30.09 in 10.0 mi East 5.8 mph - N/A   Clear
8:53 PM 81.0 °F 84.1 °F 69.1 °F 67% 30.10 in 10.0 mi ESE 4.6 mph - N/A   Clear
9:53 PM 79.0 °F - 70.0 °F 74% 30.10 in 10.0 mi East 3.5 mph - N/A   Clear
10:53 PM 79.0 °F - 69.1 °F 72% 30.12 in 10.0 mi Calm Calm - N/A   Clear
11:53 PM 77.0 °F - 70.0 °F 79% 30.12 in 10.0 mi Calm Calm - N/A   Partly Cloudy